Benton Harbor, MI

5:42 PM EDT on July 28, 2016 (GMT -0400)
Southwest Michigan Regional

Weather History for KBEH - March, 2013

Change the Weather History Date:

Saturday, March 30, 2013

  Actual Average Record
Temperature  
Mean Temperature 38 °F -  
Max Temperature 57 °F 49 °F 80 °F (1963)
Min Temperature 19 °F 32 °F 11 °F (1954)
Degree Days  
Heating Degree Days 27    
Moisture  
Dew Point 25 °F    
Average Humidity 58    
Maximum Humidity 92    
Minimum Humidity 33    
Precipitation  
Precipitation 0.00 in - - ()
Sea Level Pressure  
Sea Level Pressure 30.11 in    
Wind  
Wind Speed 3 mph (SSW)    
Max Wind Speed 13 mph    
Max Gust Speed 17 mph    
Visibility 9 miles    
Events      
Averages and records for this station are not official NWS values.
T = Trace of Precipitation, MM = Missing Value Source: NWS Daily Summary

Daily Weather History Graph

Daily Weather History Graph

Search for Another Location

Airport or City:

Trip Planner

Search our weather history database for the weather conditions in past years. The results will help you decide how hot, cold, wet, or windy it might be!

Date:

Astronomy

Mar. 30, 2013 Rise Set
Actual Time 7:31 AM EDT 8:09 PM EDT
Civil Twilight 7:03 AM EDT 8:37 PM EDT
Nautical Twilight 6:29 AM EDT 9:11 PM EDT
Astronomical Twilight 5:55 AM EDT 9:45 PM EDT
Moon No Moon Rise 9:22 AM EDT (3/30)
Length of Visible Light 13h 34m
Length of Day
12h 38m
Waning Gibbous, 86% of the Moon is Illuminated
Mar 30
Waning Gibbous
Apr 3
Last Quarter
Apr 10
New
Apr 18
First Quarter
Apr 25
Full

Hourly Weather History & Observations

Time (EDT) Temp. Windchill Dew Point Humidity Pressure Visibility Wind Dir Wind Speed Gust Speed Precip Events Conditions
12:53 AM 26.1 °F - 21.0 °F 81% 30.26 in 10.0 mi Calm Calm - N/A   Clear
1:53 AM 26.1 °F - 19.9 °F 78% 30.26 in 8.0 mi Calm Calm - N/A   Clear
2:53 AM 25.0 °F - 21.0 °F 85% 30.25 in 8.0 mi Calm Calm - N/A   Clear
3:53 AM 23.0 °F - 19.9 °F 88% 30.25 in 9.0 mi Calm Calm - N/A   Clear
4:53 AM 21.0 °F - 19.0 °F 92% 30.24 in 9.0 mi Calm Calm - N/A   Clear
5:53 AM 21.0 °F - 18.0 °F 88% 30.24 in 7.0 mi Calm Calm - N/A   Clear
6:53 AM 21.0 °F - 18.0 °F 88% 30.24 in 8.0 mi Calm Calm - N/A   Clear
7:53 AM 19.9 °F 14.9 °F 18.0 °F 92% 30.23 in 7.0 mi East 3.5 mph - N/A   Clear
8:53 AM 28.0 °F - 23.0 °F 81% 30.21 in 7.0 mi Calm Calm - N/A   Clear
9:53 AM 39.0 °F 34.8 °F 24.1 °F 55% 30.20 in 10.0 mi South 5.8 mph - N/A   Clear
10:53 AM 45.0 °F 41.8 °F 21.9 °F 40% 30.18 in 10.0 mi South 5.8 mph - N/A   Clear
11:53 AM 48.9 °F - 21.0 °F 33% 30.16 in 10.0 mi SSW 8.1 mph - N/A   Clear
12:53 PM 52.0 °F - 24.1 °F 34% 30.13 in 10.0 mi South 9.2 mph - N/A   Clear
1:53 PM 55.0 °F - 28.0 °F 35% 30.09 in 10.0 mi WSW 10.4 mph - N/A   Clear
2:53 PM 55.0 °F - 27.0 °F 34% 30.06 in 10.0 mi WSW 3.5 mph - N/A   Clear
3:53 PM 55.9 °F - 30.0 °F 37% 30.03 in 10.0 mi WSW 11.5 mph 17.3 mph N/A   Clear
4:53 PM 55.9 °F - 30.9 °F 39% 30.00 in 10.0 mi South 9.2 mph - N/A   Clear
5:53 PM 57.0 °F - 30.9 °F 37% 29.98 in 10.0 mi South 10.4 mph - N/A   Clear
6:53 PM 55.9 °F - 30.0 °F 37% 29.96 in 10.0 mi South 12.7 mph - N/A   Scattered Clouds
7:53 PM 54.0 °F - 30.9 °F 41% 29.95 in 10.0 mi South 6.9 mph - N/A   Partly Cloudy
8:53 PM 52.0 °F - 32.0 °F 47% 29.94 in 10.0 mi SSW 6.9 mph - N/A   Mostly Cloudy
9:53 PM 51.1 °F - 32.0 °F 48% 29.93 in 10.0 mi South 5.8 mph - N/A   Overcast
10:53 PM 50.0 °F - 32.0 °F 50% 29.92 in 10.0 mi South 4.6 mph - N/A   Overcast
11:53 PM 50.0 °F - 33.1 °F 52% 29.90 in 10.0 mi Calm Calm - N/A   Overcast